Stations météo

Publicité
Cherbourg, France (7024): Température de l'air & dewpoint: 16.07.2019 17:00:00 - 22.07.2019 17:00:00 (CEST)Cherbourg, France (7024): Température de l'air 5cm: 16.07.2019 17:00:00 - 22.07.2019 17:00:00 (CEST)Cherbourg, France (7024): Température de l'air -20cm & Température de l'air -100cm: 16.07.2019 17:00:00 - 22.07.2019 17:00:00 (CEST)Cherbourg, France (7024): Vitesse du vent & gusts: 16.07.2019 17:00:00 - 22.07.2019 17:00:00 (CEST)Cherbourg, France (7024): Direction du vent: 16.07.2019 17:00:00 - 22.07.2019 17:00:00 (CEST)Cherbourg, France (7024): reduced air pressure: 16.07.2019 17:00:00 - 22.07.2019 17:00:00 (CEST)Cherbourg, France (7024): visibility: 16.07.2019 17:00:00 - 22.07.2019 17:00:00 (CEST)Cherbourg, France (7024): Ensoleillement: 16.07.2019 17:00:00 - 22.07.2019 17:00:00 (CEST)Cherbourg, France (7024): Quantités de précipitations: 16.07.2019 17:00:00 - 22.07.2019 17:00:00 (CEST)
Date & Time tt [°C] td [°C] tt 5cm [°C] tt -20cm [°C] tt -100cm [°C] ff [km/h] ff [knt] fx [km/h] fx [knt] dd ppp [hPa] vv [km] sd [min] rr [mm]
22.07.2019 17:00:00 21,7 15,5 38,0 17,4 15,7 10 6 19 10 N 1023,2 49 60 0,0
22.07.2019 16:00:00 22,1 16,6 35,2 17,2 15,7 11 6 19 10 N 1023,4 41 60 0,0
22.07.2019 15:00:00 21,8 15,2 29,5 17,1 15,7 11 6 22 12 N 1023,9 20 48 0,0
22.07.2019 14:00:00 22,3 16,1 31,1 17,0 15,7 15 8 23 12 WNW 1024,1 60 57 0,0
22.07.2019 13:00:00 21,2 16,2 26,3 16,9 15,7 13 7 22 12 NW 1024,2 19 52 0,0
22.07.2019 12:00:00 20,5 16,1 27,8 16,9 15,7 11 6 16 9 NNW 1024,4 19 60 0,0
22.07.2019 11:00:00 20,6 16,4 25,1 16,9 15,7 11 6 19 10 NW 1024,3 54 60 0,0
22.07.2019 10:00:00 20,1 15,9 20,6 16,9 15,7 12 6 19 11 SW 1024,2 50 60 0,0
22.07.2019 09:00:00 18,1 15,9 16,5 17,0 15,7 12 7 20 11 WSW 1024,1 25 49 0,0
22.07.2019 08:00:00 15,7 15,1 14,5 17,0 15,7 9 5 17 9 SSW 1024,1 16 0 0,0
22.07.2019 07:00:00 14,8 14,3 12,7 17,1 15,7 14 8 21 11 SW 1024,0 18 0 0,0
22.07.2019 06:00:00 13,5 13,0 12,2 17,2 15,7 14 7 17 9 SW 1024,1 14 0 0,2
22.07.2019 05:00:00 14,0 13,2 12,9 17,2 15,7 11 6 18 10 WSW 1023,9 19 0 0,0
22.07.2019 04:00:00 15,0 13,5 12,0 17,3 15,7 13 7 19 10 WSW 1024,1 44 0 0,0
22.07.2019 03:00:00 14,7 13,2 12,8 17,4 15,7 6 4 14 7 WSW 1024,2 37 0 0,0
22.07.2019 02:00:00 14,2 13,1 12,5 17,5 15,7 11 6 16 9 SSW 1024,2 34 0 0,0
22.07.2019 01:00:00 14,3 13,3 11,1 17,5 15,6 11 6 14 7 SSW 1024,3 39 0 0,0
22.07.2019 00:00:00 14,5 13,7 11,2 17,6 15,7 8 4 12 6 S 1024,1 31 0 0,0
21.07.2019 23:00:00 15,2 13,7 11,0 17,6 15,7 6 3 8 4 S 1024,1 8 0 0,0
21.07.2019 22:00:00 17,1 13,8 14,9 17,5 15,6 4 2 8 4 SSE 1023,5 38 23 0,0
21.07.2019 21:00:00 19,1 13,7 19,1 17,5 15,6 4 2 12 6 NW 1023,2 51 60 0,0
21.07.2019 20:00:00 20,7 13,9 24,8 17,4 15,7 7 4 17 9 NW 1022,9 45 60 0,0
21.07.2019 19:00:00 22,7 14,3 27,6 17,3 15,7 3 2 12 7 WSW 1022,5 46 55 0,0
21.07.2019 18:00:00 21,4 13,8 25,4 17,1 15,6 7 4 18 10 NNW 1022,8 44 29 0,0
21.07.2019 17:00:00 20,8 14,7 28,5 16,9 15,7 11 6 28 15 NE 1022,9 54 46 0,0
21.07.2019 16:00:00 23,2 13,9 26,4 16,8 15,6 14 7 23 13 SSW 1022,6 34 40 0,0
21.07.2019 15:00:00 21,2 14,8 28,9 16,7 15,7 10 6 26 14 ENE 1023,0 60 51 0,0
21.07.2019 14:00:00 21,5 13,9 24,2 16,6 15,7 13 7 21 12 SSW 1023,0 58 20 0,0
21.07.2019 13:00:00 20,6 13,3 24,2 16,5 15,6 12 6 22 12 S 1022,8 20 24 0,0
21.07.2019 12:00:00 20,4 13,4 23,3 16,5 15,6 10 5 24 13 SW 1022,4 45 54 0,0
21.07.2019 11:00:00 19,0 13,8 20,6 16,5 15,6 12 7 20 11 SW 1022,6 35 5 0,0
21.07.2019 10:00:00 17,8 13,7 19,7 16,5 15,6 13 7 19 10 SW 1022,3 10 34 0,0
21.07.2019 09:00:00 16,8 14,6 15,3 16,5 15,6 9 5 16 8 WSW 1021,8 20 60 0,0
21.07.2019 08:00:00 15,0 14,8 11,6 16,6 15,6 8 4 13 7 WSW 1021,8 17 55 0,0
21.07.2019 07:00:00 12,6 12,6 8,4 16,7 15,7 9 5 12 7 SW 1021,3 0,5 0 0,0
21.07.2019 06:00:00 12,7 12,4 11,3 16,7 15,6 10 5 16 8 WSW 1020,7 12 0 0,0
21.07.2019 05:00:00 12,8 12,2 10,8 16,8 15,6 11 6 14 8 W 1019,9 19 0 0,2
21.07.2019 04:00:00 13,5 12,6 12,0 16,9 15,6 9 5 24 13 W 1019,8 20 0 0,0
21.07.2019 03:00:00 14,1 12,8 12,9 16,9 15,6 16 8 24 13 W 1019,4 29 0 0,0
21.07.2019 02:00:00 14,2 13,1 13,2 17,0 15,6 18 10 28 15 W 1018,9 29 0 0,0
21.07.2019 01:00:00 14,4 13,1 13,3 17,0 15,6 18 10 33 18 W 1018,6 29 0 0,0
21.07.2019 00:00:00 14,5 13,0 13,4 17,1 15,6 16 9 29 16 W 1018,3 33 0 0,0
20.07.2019 23:00:00 15,2 13,0 14,2 17,1 15,6 21 11 35 19 W 1017,8 37 0 0,0
20.07.2019 22:00:00 16,0 12,7 15,2 17,2 15,6 23 12 38 21 W 1016,6 41 24 0,0
20.07.2019 21:00:00 17,0 12,9 16,9 17,1 15,6 26 14 41 22 W 1016,0 29 36 0,0
20.07.2019 20:00:00 18,3 11,6 19,7 17,1 15,6 27 15 40 22 W 1015,1 28 60 0,0
20.07.2019 19:00:00 18,8 13,6 19,9 17,1 15,7 28 15 44 24 W 1014,5 31 19 0,0
20.07.2019 18:00:00 19,0 15,1 21,1 17,0 15,6 31 17 49 27 W 1014,1 16 34 0,0
20.07.2019 17:00:00 20,0 15,2 22,5 17,0 15,6 31 17 48 26 W 1013,4 17 41 0,0
20.07.2019 16:00:00 20,2 15,0 21,9 17,0 15,7 29 16 48 26 W 1012,9 17 14 0,0
20.07.2019 15:00:00 19,5 15,8 17,0 16,9 15,6 28 15 49 26 WSW 1012,6 18 10 0,0
20.07.2019 14:00:00 18,8 16,0 19,1 16,9 15,6 26 14 48 26 W 1012,1 18 0 0,0
20.07.2019 13:00:00 19,3 15,6 20,2 16,9 15,7 34 18 51 28 W 1011,4 20 25 0,0
20.07.2019 12:00:00 19,3 15,2 21,2 16,8 15,6 29 16 48 26 W 1010,7 20 42 0,0
20.07.2019 11:00:00 18,6 16,2 19,1 16,8 15,6 27 15 42 23 W 1010,2 19 29 0,0
20.07.2019 10:00:00 18,0 16,3 16,9 16,8 15,6 22 12 35 19 W 1009,6 18 25 0,0
20.07.2019 09:00:00 16,8 16,3 16,9 16,8 15,6 19 10 36 19 W 1008,9 17 4 0,0
20.07.2019 08:00:00 17,2 16,7 16,8 16,8 15,6 22 12 46 25 WSW 1008,1 17 4 0,4
20.07.2019 07:00:00 17,8 17,2 17,2 16,8 15,6 21 11 42 23 WSW 1007,8 10 0 0,2
20.07.2019 06:00:00 17,5 17,2 17,2 16,8 15,6 20 11 34 18 SSW 1007,8 3,0 0 0,8
20.07.2019 05:00:00 17,7 17,1 17,2 16,8 15,6 22 12 39 21 SSW 1008,3 12 0 0,0
20.07.2019 04:00:00 17,4 17,2 17,0 16,9 15,6 19 11 44 24 SW 1008,8 19 0 0,0
20.07.2019 03:00:00 17,3 17,0 16,9 16,9 15,6 23 12 43 23 S 1008,9 20 0 3,4
20.07.2019 02:00:00 17,5 17,2 17,2 16,9 15,6 28 15 40 22 SSW 1009,6 1,9 0 4,9
20.07.2019 01:00:00 17,9 17,3 17,3 16,9 15,6 21 11 35 19 SSW 1009,6 8 0 2,8
20.07.2019 00:00:00 18,3 17,1 17,5 16,9 15,6 18 10 32 17 SW 1010,1 27 0 0,0
19.07.2019 23:00:00 18,2 17,4 17,6 16,9 15,7 20 11 29 16 SW 1010,4 12 0 0,2
19.07.2019 22:00:00 18,6 17,4 17,8 16,8 15,6 16 9 34 18 SSW 1010,5 15 0 0,0
19.07.2019 21:00:00 19,9 16,9 19,9 16,8 15,6 20 11 37 20 SW 1010,9 55 0 0,0
19.07.2019 20:00:00 20,7 16,9 21,4 16,8 15,7 25 13 40 21 SW 1011,3 43 0 0,0
19.07.2019 19:00:00 21,4 17,2 20,7 16,7 15,6 23 12 40 21 SW 1011,4 60 12 0,0
19.07.2019 18:00:00 20,0 17,2 20,3 16,7 15,7 27 15 44 24 SW 1012,2 18 0 0,0
19.07.2019 17:00:00 20,5 16,3 21,3 16,6 15,6 27 15 40 22 SSW 1012,5 38 0 0,0
19.07.2019 16:00:00 20,3 16,3 21,7 16,6 15,7 27 14 46 25 SSW 1012,8 44 3 0,0
19.07.2019 15:00:00 19,9 16,5 17,2 16,5 15,7 26 14 42 23 SSW 1012,9 27 7 0,0
19.07.2019 14:00:00 17,2 16,6 17,0 16,5 15,6 22 12 45 24 SSW 1013,4 8 0 0,2
19.07.2019 13:00:00 20,0 15,4 21,9 16,5 15,7 29 16 45 24 SSW 1013,1 30 13 0,0
19.07.2019 12:00:00 19,3 15,8 18,9 16,4 15,7 22 12 40 22 SSW 1013,4 19 11 0,0
19.07.2019 11:00:00 19,2 14,9 19,0 16,4 15,6 27 15 41 22 SSW 1013,8 60 20 0,0
19.07.2019 10:00:00 17,0 14,5 16,4 16,4 15,6 23 12 37 20 SSW 1014,0 24 3 0,0
19.07.2019 09:00:00 14,9 14,4 14,5 16,5 15,6 9 5 16 9 SSE 1014,3 17 2 0,0
19.07.2019 08:00:00 14,2 14,0 13,5 16,5 15,6 7 4 15 8 S 1014,6 14 0 0,0
19.07.2019 07:00:00 13,7 13,5 11,8 16,6 15,6 12 6 16 9 SSW 1014,5 12 0 0,0
19.07.2019 06:00:00 13,0 12,8 10,5 16,6 15,6 8 5 13 7 S 1014,4 8 0 0,0
19.07.2019 05:00:00 12,9 12,7 10,3 16,7 15,7 4 2 14 8 SSW 1014,5 9 0 0,0
19.07.2019 04:00:00 13,0 12,7 11,8 16,7 15,6 11 6 17 9 SW 1014,8 13 0 0,0
19.07.2019 03:00:00 13,1 12,8 11,1 16,8 15,6 10 5 14 8 SW 1015,0 9 0 0,0
19.07.2019 02:00:00 14,0 13,2 13,0 16,8 15,6 10 6 18 10 WSW 1015,3 19 0 0,0
19.07.2019 01:00:00 15,3 13,5 14,5 16,9 15,6 13 7 20 11 WSW 1015,3 35 0 0,0
19.07.2019 00:00:00 15,4 13,1 14,5 16,9 15,7 12 6 19 11 W 1015,1 38 0 0,0
18.07.2019 23:00:00 15,7 12,3 15,0 16,9 15,7 15 8 22 12 W 1015,0 40 0 0,0
18.07.2019 22:00:00 16,1 12,5 15,6 16,9 15,6 13 7 22 12 W 1014,6 38 0 0,0
18.07.2019 21:00:00 16,8 11,7 17,0 16,9 15,6 17 9 28 15 W 1014,4 45 4 0,0
18.07.2019 20:00:00 17,2 12,7 18,3 16,9 15,6 16 9 31 17 W 1014,2 26 3 0,0
18.07.2019 19:00:00 17,2 14,3 19,1 16,9 15,7 19 10 33 18 WNW 1014,1 46 8 0,0
18.07.2019 18:00:00 18,1 13,8 19,7 16,9 15,6 21 11 34 19 WNW 1013,8 20 17 0,0
18.07.2019 17:00:00 17,7 13,8 21,1 16,9 15,7 24 13 38 21 WNW 1013,8 44 2 0,0
18.07.2019 16:00:00 18,8 13,0 20,3 16,8 15,7 25 14 40 22 W 1013,5 43 12 0,0
18.07.2019 15:00:00 18,3 12,5 19,5 16,8 15,7 20 11 38 21 WSW 1013,5 41 0 0,0
18.07.2019 14:00:00 18,3 14,0 19,6 16,8 15,6 24 13 37 20 WNW 1013,5 35 2 0,0
18.07.2019 13:00:00 19,2 15,5 19,1 16,8 15,7 24 13 38 20 WSW 1013,0 32 9 0,0
18.07.2019 12:00:00 18,0 15,4 18,7 16,7 15,6 18 10 32 17 W 1012,9 30 4 0,0
18.07.2019 11:00:00 18,2 16,4 18,2 16,7 15,6 22 12 36 19 WSW 1012,7 20 12 0,0
18.07.2019 10:00:00 17,0 16,0 16,3 16,8 15,6 20 11 33 18 W 1012,6 16 7 0,2
18.07.2019 09:00:00 16,3 16,0 15,9 16,8 15,6 20 11 35 19 WSW 1012,5 4,5 0 0,6
18.07.2019 08:00:00 15,9 15,7 15,3 16,8 15,7 22 12 37 20 SW 1012,2 2,6 0 0,0
18.07.2019 07:00:00 15,5 15,0 15,2 16,9 15,7 19 10 39 21 SW 1012,2 2,1 0 0,0
18.07.2019 06:00:00 15,7 14,7 14,4 16,9 15,6 19 11 32 17 SW 1012,5 15 0 0,0
18.07.2019 05:00:00 14,8 14,0 14,1 16,9 15,6 15 8 30 16 WSW 1012,7 14 0 0,0
18.07.2019 04:00:00 14,7 14,1 13,6 17,0 15,6 16 9 27 15 WSW 1013,2 12 0 0,0
18.07.2019 03:00:00 14,5 13,7 13,8 17,0 15,6 15 8 28 15 SW 1013,7 13 0 0,0
18.07.2019 02:00:00 15,1 14,1 14,6 17,1 15,6 19 11 31 17 W 1013,9 13 0 0,0
18.07.2019 01:00:00 15,2 14,4 14,4 17,1 15,6 16 9 27 15 W 1014,3 13 0 0,0
18.07.2019 00:00:00 15,2 14,2 14,4 17,2 15,7 17 9 26 14 W 1014,5 14 0 0,0
17.07.2019 23:00:00 15,2 14,1 14,3 17,2 15,6 14 8 27 15 W 1014,7 15 0 0,0
17.07.2019 22:00:00 15,3 13,7 14,5 17,2 15,6 18 10 28 15 W 1014,6 20 14 0,0
17.07.2019 21:00:00 16,4 13,5 16,6 17,2 15,6 17 9 34 19 W 1014,4 24 34 0,0
17.07.2019 20:00:00 17,2 12,9 18,1 17,1 15,6 15 8 27 14 W 1014,7 19 19 0,0
17.07.2019 19:00:00 16,6 13,9 18,2 17,1 15,6 13 7 22 12 WNW 1014,8 17 0 0,0
17.07.2019 18:00:00 19,5 13,4 22,5 17,0 15,7 13 7 31 17 WNW 1014,8 33 31 0,0
17.07.2019 17:00:00 18,6 13,9 21,4 16,9 15,7 15 8 24 13 WNW 1015,2 20 14 0,0
17.07.2019 16:00:00 19,1 13,9 25,8 16,8 15,6 10 6 22 12 NW 1015,2 33 44 0,0
17.07.2019 15:00:00 19,5 12,7 26,6 16,7 15,7 15 8 23 13 WNW 1015,4 20 58 0,0
17.07.2019 14:00:00 18,3 14,0 24,8 16,6 15,6 15 8 24 13 NW 1016,0 18 35 0,0
17.07.2019 13:00:00 18,2 14,1 26,5 16,6 15,7 13 7 22 12 NW 1016,2 17 48 0,0
17.07.2019 12:00:00 18,2 12,6 24,4 16,6 15,6 10 6 21 12 NNW 1016,2 20 55 0,0
17.07.2019 11:00:00 18,8 12,3 23,1 16,6 15,6 12 7 20 11 WNW 1016,2 38 51 0,0
17.07.2019 10:00:00 18,0 11,8 19,2 16,6 15,6 8 4 14 7 W 1016,5 16 60 0,0
17.07.2019 09:00:00 14,3 12,2 14,5 16,7 15,6 5 3 7 4 S 1016,4 15 58 0,0
17.07.2019 08:00:00 13,6 13,6 6,6 16,8 15,6 3 2 4 2 SE 1016,4 7 57 0,0
17.07.2019 07:00:00 9,7 9,6 3,4 16,9 15,6 0 0 0 0 N 1016,8 0,2 6 0,0
17.07.2019 06:00:00 9,9 9,7 3,2 17,0 15,6 0 0 0 0 N 1017,0 0,1 0 0,0
17.07.2019 05:00:00 11,6 11,3 4,6 17,1 15,6 0 0 6 4 N 1017,3 0,2 0 0,2
17.07.2019 04:00:00 12,8 12,5 10,6 17,2 15,6 5 3 10 5 NNW 1017,6 10 0 0,0
17.07.2019 03:00:00 13,3 13,1 4,5 17,3 15,6 5 3 9 5 NNW 1018,0 7 0 0,0
17.07.2019 02:00:00 12,0 11,8 4,2 17,4 15,6 6 3 9 5 N 1018,4 3,5 0 0,0
17.07.2019 01:00:00 12,3 12,1 3,8 17,5 15,6 7 4 9 5 N 1018,3 11 0 0,0
17.07.2019 00:00:00 12,5 11,9 5,1 17,6 15,6 5 3 11 6 NE 1018,4 10 0 0,0
16.07.2019 23:00:00 12,4 11,0 6,8 17,6 15,6 5 3 6 3 WNW 1018,5 19 0 0,0
16.07.2019 22:00:00 15,0 11,8 10,2 17,6 15,6 3 2 4 2 NE 1018,2 29 27 0,0
16.07.2019 21:00:00 18,3 11,8 20,0 17,5 15,6 0 0 9 5 N 1018,1 34 60 0,0
16.07.2019 20:00:00 18,6 11,7 25,5 17,4 15,6 5 3 19 11 ENE 1018,3 29 60 0,0
16.07.2019 19:00:00 18,8 12,1 29,3 17,3 15,6 10 5 18 10 NE 1018,4 20 60 0,0
16.07.2019 18:00:00 18,9 12,2 31,4 17,2 15,6 11 6 23 13 NE 1018,8 40 60 0,0
16.07.2019 17:00:00 18,8 12,3 32,1 17,0 15,6 14 8 26 14 ENE 1019,1 19 60 0,0

tt = Température de l'air
td = dewpoint
tt 5cm = Température de l'air 5cm
tt -20cm = Température de l'air -20cm
tt -100cm = Température de l'air -100cm
ff = Vitesse du vent
fx = gusts
dd = Direction du vent
ppp = reduced air pressure
vv = visibility
sd = Ensoleillement
rr = Quantités de précipitations

stations d'obs. à proximité